LFBALFBH

Guest
Details From LFBA - Agen la Garenne
To LFBH - La Rochelle Laleu
Flight Number -
Tags generated
Created
Modified
Stats Distance 143 nm / 264 km
Max Altitude 18,600 ft / 5,669 m
Waypoints 3
Social Downloads 1
Likes 0
Share VATSIM

Download

Looking for another format? Having issues loading an existing format? Contact us
Advertisement - Login to hide

Notes

Basic altitude profile: - Ascent Rate: 2500ft/min - Ascent Speed: 250kts - Cruise Altitude: 80ft - Cruise Speed: 420kts - Descent Rate: 1500ft/min - Descent Speed: 250kts Options: - Use NATs: yes - Use PACOTS: no - Use low airways: no - Use high airways: no

Route

LFBA 4500N0000E LFBH

ID Type Via Altitude Latitude Longitude Leg Dist Tot Dist Heading (true) Name
O LFBA APT - 0 ft / 0 m 44.17403˚ 0.59296˚ - 0 nm - Agen la Garenne
4500N0000E LATLON - 18,600 ft / 5,669 m 45.00000˚ 0.00000˚ 55 nm 55 nm 333° / 333° -
O LFBH APT - 0 ft / 0 m 46.17924˚ -1.19641˚ 86 nm 142 nm 325° / 324° La Rochelle Laleu

Altitude Profile

Advertisement - Login to hide

LFBA

Details ICAO LFBA (AGF)
Name Agen la Garenne
Region France
Timezone Europe/Paris (UTC+2.0)
Stats Elevation 204 ft / 62 m (AMSL)
Location 44.174025° 0.592961°
Runways 1
Magnetic Variation 0.396° E

METAR

LFBA 262330Z AUTO 10006KT 070V130 9999 ///CB 16/14 Q1014

Decode

TAF

Not found

Departure Runways

ID Width Length Bearing (true) Bearing (mag) Surface Threshold Offset Overrun Length
11 98 ft / 30 m 7,088 ft / 2,161 m 112.24° 111.84° Asphalt 541 ft / 165 m 0 ft / 0 m
29 98 ft / 30 m 7,088 ft / 2,161 m 292.26° 291.86° Asphalt 1,312 ft / 400 m 0 ft / 0 m

LFBH

Details ICAO LFBH (LRH)
Name La Rochelle Laleu
Region France
Timezone Europe/Paris (UTC+2.0)
Stats Elevation 74 ft / 23 m (AMSL)
Location 46.179245° -1.196410°
Runways 1
Magnetic Variation 0.243° W

METAR

LFBH 262330Z AUTO 18003KT 9999 BKN014 17/14 Q1013 NOSIG

Decode

TAF

TAF LFBH 261700Z 2618/2718 18008KT 9999 SCT015 BECMG 2700/2702 BKN010 PROB40 TEMPO 2702/2707 1500 BR BKN003 BECMG 2707/2709 SCT015 BECMG 2713/2715 30012KT

Decode

Destination Runways

ID Width Length Bearing (true) Bearing (mag) Surface Threshold Offset Overrun Length
10 148 ft / 45 m 7,383 ft / 2,250 m 92.43° 92.67° Asphalt 1,033 ft / 315 m 0 ft / 0 m
28 148 ft / 45 m 7,383 ft / 2,250 m 272.45° 272.69° Asphalt 1,532 ft / 467 m 0 ft / 0 m

Approach Navaids

Runway Type Ident Frequency Range Bearing (true) Bearing (mag) Slope Elevation
28 Localiser RL 109.55 MHz 18 nm / 33 km 272.43° 272.67° - 72 ft / 22 m (AMSL)
28 Glidescope RL 109.55 MHz 10 nm / 19 km 272.44° 272.68° 3.10° 108 ft / 33 m (AMSL)
28 DME RL 109.55 MHz 18 nm / 33 km - - - 66 ft / 20 m (AMSL)

Popular Alternatives